Regional Weather Roundup
Issued by NWS Northern Indiana

Home | Current Version | Previous Version | Graphics & Text | Print | Product List | Glossary On
Versions: 1 2 3 4 5 6 7 8 9 10 11 12 13 14 15 16 17 18 19 20 21 22 23 24 25 26 27 28 29 30 31 32 33 34 35 36 37 38 39 40 41 42 43 44 45 46 47 48 49 50
000
ASUS43 KIWX 241910
RWRIWX

KIWX WEATHER ROUNDUP
NATIONAL WEATHER SERVICE NORTHERN INDIANA
300 PM EDT FRI APR 24 2015

NOTE: "FAIR" INDICATES FEW OR NO CLOUDS BELOW 12,000 FEET WITH NO
SIGNIFICANT WEATHER AND/OR OBSTRUCTIONS TO VISIBILITY.

* THESE STATIONS ARE NOT UNDER NWS QUALITY CONTROL. THEY ALSO MAY NOT
  REPORT WEATHER SUCH AS PRECIPITATION OR FOG.

INZ001>027-242000-
NORTHERN INDIANA

CITY           SKY/WX    TMP DP  RH WIND       PRES   REMARKS
VALPARAISO     PTSUNNY   59  13  16 VRB6      30.00F
MICHIGAN CITY* PTSUNNY   55  10  16 N8        30.02F
LAPORTE*       MOSUNNY   60  17  18 W5        30.01F
KNOX*          MOSUNNY   61 N/A N/A SW6       30.01F
SOUTH BEND     MOSUNNY   59  16  18 S7        30.03F
ELKHART*       MOSUNNY   59  16  18 S8        30.02F
GOSHEN         SUNNY     59  27  29 SW8       30.02F
MONTICELLO*    MOSUNNY   60  25  26 S6        30.00F
LOGANSPORT*    MOSUNNY   59   9  13 CALM      30.02F
ROCHESTER*     SUNNY     63  23  22 SW8       30.03F
WARSAW*        SUNNY     59  21  23 SW3       30.02F
ANGOLA*        SUNNY     57  21  24 NW5       30.02F
FORT WAYNE     MOSUNNY   58  22  24 VRB5      30.04F
HUNTINGTON*    SUNNY     57  19  23 W3        30.02F
PERU/GRISSOM   MOSUNNY   59  23  24 VRB5      30.01F
MARION*        MOSUNNY   58  16  19 CALM      30.03F

$$
INZ028>050-242000-
CENTRAL INDIANA

CITY           SKY/WX    TMP DP  RH WIND       PRES   REMARKS
LAFAYETTE      PTSUNNY   59  22  24 S7        30.01F
KOKOMO*        MOSUNNY   59  21  23 SW6       30.02F
MUNCIE*        MOSUNNY   59  20  22 W7        30.03F
INDIANAPOLIS   CLOUDY    58  20  22 E3        30.01F

$$
MIZ043>046-050>051-056>058-064>065-071>073-077>080-242000-
SOUTHWEST LOWER MICHIGAN

CITY           SKY/WX    TMP DP  RH WIND       PRES   REMARKS
BATTLE CREEK   SUNNY     57  23  26 SW9       30.03F
BENTON HARBOR  MOSUNNY   53  18  25 NW9       30.03F
COLDWATER*     SUNNY     56  18  23 W6        30.03F
HILLSDALE*     SUNNY     56  19  23 W6        30.03F
HOLLAND        SUNNY     56  23  27 MISG      30.05F
GRAND RAPIDS   MOSUNNY   54  18  24 VRB5      30.04F
KALAMAZOO      SUNNY     58  21  24 CALM      30.03F
STURGIS*       MOSUNNY   55  21  26 CALM      30.02F
THREE RIVERS*  FAIR      58  23  25 W6        30.02F

$$
OHZ001>008-015>018-024>025-242000-
NORTHWEST OHIO

CITY           SKY/WX    TMP DP  RH WIND       PRES   REMARKS
WAUSEON*       FAIR      57  21  24 VRB7      30.04F
DEFIANCE       SUNNY     60  22  23 VRB6      30.05F
FINDLAY        SUNNY     58  23  26 VRB7      30.04F
TOLEDO EXPRESS SUNNY     56  21  25 W10G17    30.04F
TOLEDO METCALF SUNNY     57  23  26 W13       30.05F
LIMA           SUNNY     57  25  29 SW12G18   30.05F

$$
AND FOR LAKE MICHIGAN COASTAL AND OPEN LAKE BUOY OBSERVATIONS

STATION/POSITION TEMP    WIND        PRES    VSBY  WAVE
                 AIR SEA DIR/SP/G                  HT/PER
                 (F)     (DEG/KT/KT) (MB)    (MI)  (FT/S)
CALUMET HARBOR    48      50/  9/ 11   N/A
MICHIGAN CITY     45      20/ 10/ 11   N/A
BURNS HARBOR      49      60/ 10/ 11 1016.6F
SAINT JOSEPH      49     350/  5/  7 1017.3F
MICHIGAN CITY     43 44   60/  8/ 10   N/A           1

$$
&&



USA.gov is the U.S. government's official web portal to all federal, state and local government web resources and services.